Location: Unspecified
(0.0000°N, 0.0000°E)
Time: 23:18:57
(UTC+01:00)

ARIANE 5 R/B - Visible Passes

Search period start: 22 February 2018 00:00
Search period end: 04 March 2018 00:00
Orbit: 553 x 35573 km, 5.1° (Epoch: 21 February)

Date Brightness Start Highest point End Pass type
(mag) Time Alt. Az. Time Alt. Az. Time Alt. Az.
22 Feb 7.1 19:01:54 10° W 20:50:30 65° W 04:56:29 10° E visible
23 Feb 7.5 15:54:36 10° W 21:55:44 90° N 01:54:22 10° E visible
24 Feb 6.0 12:53:39 10° W 20:58:12 49° E 21:54:41 43° E visible
25 Feb 10.6 21:25:53 10° W 22:55:29 29° W 02:24:13 10° W visible
26 Feb 4.0 06:36:44 10° W 06:54:27 69° N 06:58:33 10° E visible
26 Feb 6.7 18:00:47 10° W 19:51:31 79° WSW 03:58:24 10° E visible
27 Feb 7.5 14:56:09 10° W 22:58:36 86° NE 00:54:48 10° E visible
28 Feb 5.4 11:55:49 10° W 19:59:16 36° E 21:01:57 29° E visible
01 Mar 6.9 20:16:11 10° W 21:57:06 42° W 06:00:43 10° E visible
02 Mar 7.3 17:00:49 10° W 20:01:23 88° S 03:00:09 10° E visible
03 Mar 6.9 13:58:01 10° W 22:05:21 73° E 23:01:13 66° ENE visible
